Preview of NWS' New Version of Forecast
This preview is not operational and should not be used for support decisions.

Regional Weather Roundup (RWR)

Issued by National Weather Service (NWS)

                            
000
ASUS43 KTOP 172359
RWRKS 

WEATHER ROUNDUP FOR KANSAS
NATIONAL WEATHER SERVICE GOODLAND KS
600 PM CST SUN FEB 17 2019

NOTE:  "FAIR" INDICATES FEW OR NO CLOUDS BELOW 12,000 FEET WITH NO
SIGNIFICANT WEATHER AND/OR OBSTRUCTIONS TO VISIBILITY.

KSZ001>006-013>018-027>032-041>047-180100-
NORTHWEST KANSAS
  
CITY           SKY/WX    TMP DP  RH WIND       PRES   REMARKS
GOODLAND       CLEAR     22   6  50 N16       30.01R WCI   8          
6HR MIN TEMP:  22; 6HR MAX TEMP:  30;                                

HAYS           CLEAR     23  15  71 N16       30.10R WCI  10          
HILL CITY      MOCLDY    21  10  62 N14       30.10R WCI   8          
6HR MIN TEMP:  21; 6HR MAX TEMP:  26;                                

RUSSELL        PTCLDY    22  14  71 NW14      30.08R WCI   9          
6HR MIN TEMP:  22; 6HR MAX TEMP:  26;                                

$$

KSZ061>065-074>080-084>089-180100-
SOUTHWEST KANSAS
  
CITY           SKY/WX    TMP DP  RH WIND       PRES   REMARKS
DODGE CITY     CLEAR     29  15  56 N15G25    30.02R WCI  18          
6HR MIN TEMP:  26; 6HR MAX TEMP:  35;                                

GARDEN CITY    CLEAR     29  14  53 N17       30.01R WCI  17          
6HR MIN TEMP:  26; 6HR MAX TEMP:  33;                                

GREAT BEND     CLEAR     26  16  65 N18       30.08R WCI  13          
LIBERAL        CLEAR     35  16  45 NE14      30.00R WCI  26          
$$

KSZ066>073-081>083-090>101-180100-
SOUTHEAST KANSAS
  
CITY           SKY/WX    TMP DP  RH WIND       PRES   REMARKS
CHANUTE        CLEAR     31  17  56 NW15G24   30.05R WCI  20          
6HR MIN TEMP:  30; 6HR MAX TEMP:  37;                                

COFFEYVILLE    CLEAR     34  20  56 NW14      30.05R WCI  25          
6HR MIN TEMP:  32; 6HR MAX TEMP:  39;                                

HUTCHINSON     CLEAR     26  16  65 NW14G23   30.08R WCI  14          
6HR MIN TEMP:  26; 6HR MAX TEMP:  31;                                

MEDICINE LODGE   N/A     33  17  51 N13       30.06R WCI  24          
NEWTON         CLEAR     24  15  68 NW20      30.07R WCI  10          
PARSONS        CLEAR     32  19  58 NW12      30.05R WCI  23          
6HR MIN TEMP:  30; 6HR MAX TEMP:  38;                                

WICHITA INTL   PTCLDY    30  16  56 N18G24    30.07R WCI  18          
6HR MIN TEMP:  30; 6HR MAX TEMP:  36;                                

WICHITA JABRA  CLEAR     27  15  61 NW16      30.07R WCI  15          
6HR MIN TEMP:  27; 6HR MAX TEMP:  33;                                

WICHITA MCCONL CLEAR     29  14  54 NW14G21   30.06R WCI  18          
WINFIELD       CLEAR     31  17  56 N13       30.07R WCI  21          
6HR MIN TEMP:  31; 6HR MAX TEMP:  39;                                

$$

KSZ007>012-019>026-033>040-048>060-102>105-180100-
NORTHEAST KANSAS
  
CITY           SKY/WX    TMP DP  RH WIND       PRES   REMARKS
CONCORDIA      PTCLDY    20  11  68 NW17      30.08R WCI   5          
6HR MIN TEMP:  20; 6HR MAX TEMP:  23;                                

EMPORIA        PTCLDY    24  15  68 NW15G28   30.06R WCI  11          
6HR MIN TEMP:  24; 6HR MAX TEMP:  31;                                

LAWRENCE       CLOUDY    26  16  65 NW15      30.05R WCI  14          
6HR MIN TEMP:  26; 6HR MAX TEMP:  30;                                

MANHATTAN      CLOUDY    24  14  65 NW10G20   30.09R WCI  14          
6HR MIN TEMP:  24; 6HR MAX TEMP:  28;                                

OLATHE IND     MOCLDY    25  16  68 NW16      30.02R WCI  12          
6HR MIN TEMP:  23; 6HR MAX TEMP:  28;                                

OLATHE EXE     MOCLDY    24  16  71 NW12G21   30.01R WCI  13          
6HR MIN TEMP:  22; 6HR MAX TEMP:  27;                                

SALINA         PTCLDY    23  15  71 NW18      30.11R WCI   9          
6HR MIN TEMP:  23; 6HR MAX TEMP:  28;                                

TOPEKA BILLARD CLOUDY    26  14  60 NW15G24   30.06R WCI  14          
6HR MIN TEMP:  26; 6HR MAX TEMP:  29;                                

TOPEKA FORBES  CLOUDY    25  16  68 NW15      30.05R WCI  13          
6HR MIN TEMP:  25; 6HR MAX TEMP:  28;                                

$$